Location: Flynn Junction
(40.1314°N, 99.5162°W)
Time: 14:46:32
(UTC+00:00)

Daily predictions for brighter satellites

Satellite Brightness Start Highest point End
(mag) Time Altitude Azimuth Time Altitude Azimuth Time Altitude Azimuth
SL-19 R/B 4.0 12:00:40 10° N 12:03:19 37° WNW 12:06:06 10° SW
H-2A R/B 4.3 12:00:07 10° NNE 12:04:08 36° E 12:07:58 10° SSE
deb Chang Zheng 4 4.2 12:04:18 10° N 12:08:04 32° WNW 12:11:52 10° SW
Cosmos 1092 Rocket 4.5 12:02:58 10° SW 12:08:34 36° WNW 12:14:16 10° N
Cosmos 2292 Rocket 3.7 12:06:06 10° S 12:09:07 54° E 12:12:45 10° NNE
ERS-2 3.5 12:06:33 10° SW 12:09:11 19° W 12:10:47 15° WNW
CZ-4B R/B 2.7 12:07:08 10° SSW 12:09:55 22° W 12:12:41 10° NW
Meteor 1-31 Rocket 3.5 12:07:27 10° N 12:10:56 31° WNW 12:14:25 10° SW
Cosmos 2082 Rocket 3.2 12:09:55 11° WSW 12:14:01 24° NW 12:18:32 10° N
Cosmos 1190 Rocket 4.0 12:09:01 10° SSW 12:14:16 87° WNW 12:19:31 10° NNE
Cosmos 1703 4.0 12:13:48 10° S 12:17:36 57° E 12:21:26 10° NNE
CREW DRAGON DEMO-1 DEB 3.5 12:16:28 10° NW 12:19:22 48° NNE 12:22:17 10° ESE
Cosmos 2058 Rocket 3.6 12:15:43 10° NNW 12:19:50 36° W 12:23:53 10° SSW
Okean 1-7 Rocket 4.3 12:16:01 10° SW 12:20:07 33° WNW 12:24:13 10° NNW
CZ-3 R/B 3.4 12:01:08 10° W 12:21:31 43° SSW 12:27:45 10° SE
ALOS 3.5 12:22:00 10° NNW 12:25:28 21° WNW 12:28:56 10° WSW
SL-16 R/B 2.5 12:19:58 10° NNW 12:25:41 74° ENE 12:31:20 10° SSE
PSLV R/B 4.2 12:21:43 10° S 12:25:46 48° W 12:29:52 10° NNW
Cosmos 2098 Rocket 3.6 12:22:00 10° SSW 12:28:04 66° W 12:32:54 10° N
CZ-4B R/B 3.5 12:26:29 10° N 12:30:15 36° WNW 12:34:11 10° SW
PSLV R/B 3.9 12:26:38 10° N 12:30:46 83° WNW 12:34:51 10° SSW
Gblst 52 Del rocket 4.4 12:25:57 10° WSW 12:31:34 64° NNW 12:37:53 10° NE
Envisat 3.5 12:28:52 10° NNE 12:33:57 69° ESE 12:39:00 10° S
Cosmos 1140 Rocket 3.5 12:28:56 10° SSW 12:33:57 56° WNW 12:39:01 10° N
S3M 4.1 12:28:15 10° N 12:34:35 81° W 12:40:57 10° S
Cosmos 407 Rocket 3.8 12:30:08 10° SW 12:35:01 44° WNW 12:39:57 10° N
Cosmos 1697 Rocket 4.4 12:33:19 10° WNW 12:35:24 12° W 12:37:30 10° WSW
Cosmos 2266 Rocket 4.0 12:30:09 10° S 12:36:11 87° E 12:42:17 10° N
Cosmos 1655 Rocket 4.0 12:31:18 10° SSW 12:37:33 72° W 12:43:54 10° N
SKYMED 2 4.4 12:35:32 10° SSW 12:39:20 30° W 12:43:10 10° NW
ATLAS 5 CENTAUR R/B 4.2 12:23:53 10° SSW 12:41:35 65° SE 12:46:06 10° NE
Aureole 1 Rocket 3.8 12:36:12 10° S 12:41:58 71° ESE 12:46:19 10° NNE
